Simultaneous Nadir Overpasses (SNOs) Predictions

Prediction of SNOs between AQUA and NOAA-19 Satellite Orbit:

Table of predicted SNOs for the next 14.0 days since TLE Epoch: 10/4/2019
Index Date (AQUA) Time (AQUA) Lat,Lon (AQUA) SZA (AQUA ) Date (NOAA-19) Time (NOAA-19) Lat,Lon (NOAA-19) SZA (NOAA-19 ) Distance(km) Time Diff (sec)
1 10/06/2019 10:36:30 80.23, -11.65 86.54 10/06/2019 10:36:15 80.21, -11.76 86.54 2.88 15
2 10/08/2019 16:10:14 -80.22, 85.01 92.64 10/08/2019 16:09:40 -80.22, 85.04 92.64 0.82 34
3 10/08/2019 16:59:41 80.24,-107.54 87.41 10/08/2019 17:00:37 80.22,-107.57 87.38 1.92 56
4 10/10/2019 21:43:58 80.22,-178.44 88.20 10/10/2019 21:43:00 80.20,-178.46 88.20 2.44 58
5 10/10/2019 22:33:25 -80.23, -10.86 91.79 10/10/2019 22:34:03 -80.22, -10.93 91.80 1.71 38
6 10/13/2019 03:17:43 -80.24, -82.05 90.95 10/13/2019 03:16:31 -80.10, -83.26 90.95 28.08 72
7 10/13/2019 04:07:09 80.24, 85.64 89.06 10/13/2019 04:07:22 80.21, 85.72 89.02 2.99 13
8 10/15/2019 09:40:53 -80.22,-177.66 90.16 10/15/2019 09:40:49 -80.20,-177.67 90.17 1.76 4
9 10/17/2019 15:14:36 80.21, -80.96 90.63 10/17/2019 15:14:07 80.20, -81.01 90.64 1.41 29




NCC Satellite Simultaneous Nadir Overpasses (SNOs) Prediction Service
